Weather History for Soldotna, AK

Change the Weather History Date:

Tuesday, December 14, 2010

  Actual Average Record
Temperature  
Mean Temperature 8 °F -  
Max Temperature 17 °F 22 °F 40 °F (1982)
Min Temperature 0 °F 7 °F -32 °F (1964)
Degree Days  
Heating Degree Days 56    
Moisture  
Dew Point 0 °F    
Average Humidity 60    
Maximum Humidity 92    
Minimum Humidity 41    
Precipitation  
Precipitation 0.00 in - - ()
Sea Level Pressure  
Sea Level Pressure 29.34 in    
Wind  
Wind Speed 6 mph (NNE)    
Max Wind Speed 13 mph    
Max Gust Speed 41 mph    
Visibility 10 miles    
Events      
Averages and records for this station are not official NWS values.
T = Trace of Precipitation, MM = Missing Value Source: NWS Daily Summary

Daily Weather History Graph

Daily Weather History Graph

Search for Another Location

Airport:

Trip Planner

Search our weather history database for the weather conditions in past years. The results will help you decide how hot, cold, wet, or windy it might be!

Date:

Astronomy

Dec. 14, 2010 Rise Set
Actual Time 10:05 AM AKST 3:52 PM AKST
Civil Twilight 9:06 AM AKST 4:51 PM AKST
Nautical Twilight 8:08 AM AKST 5:49 PM AKST
Astronomical Twilight 7:16 AM AKST 6:41 PM AKST
Moon 12:54 PM AKST (12/14) 2:09 AM AKST (12/14)
Length of Visible Light 7h 45m
Length of Day
5h 47m
Waxing Gibbous, 62% of the Moon is Illuminated
Dec 14
Waxing Gibbous
Dec 20
Full
Dec 27
Last Quarter
Jan 4
New
Jan 12
First Quarter

Hourly Weather History & Observations

Time (AKST) Temp. Windchill Dew Point Humidity Pressure Visibility Wind Dir Wind Speed Gust Speed Precip Events Conditions
12:56 AM -0.4 °F -10.4 °F -2.2 °F 92% 29.32 in 10.0 mi ENE 4.6 mph - N/A   Overcast
1:56 AM 3.2 °F -7.8 °F -0.4 °F 85% 29.32 in 10.0 mi East 5.8 mph - N/A   Overcast
2:56 AM 5.0 °F -4.1 °F 1.4 °F 85% 29.31 in 10.0 mi East 4.6 mph - N/A   Overcast
3:56 AM 6.8 °F -2.0 °F 3.2 °F 85% 29.31 in 10.0 mi East 4.6 mph - N/A   Overcast
4:56 AM 6.8 °F - 3.2 °F 85% 29.30 in 10.0 mi Calm Calm - N/A   Overcast
5:56 AM 5.0 °F -2.1 °F 1.4 °F 85% 29.31 in 10.0 mi East 3.5 mph - N/A   Mostly Cloudy
6:56 AM 6.8 °F - 5.0 °F 92% 29.29 in 10.0 mi Calm Calm - N/A   Mostly Cloudy
7:56 AM 6.8 °F - 1.4 °F 79% 29.30 in 10.0 mi Calm Calm - N/A   Mostly Cloudy
8:56 AM 15.8 °F 3.4 °F 8.6 °F 73% 29.29 in 10.0 mi North 10.4 mph 41.4 mph N/A   Overcast
9:56 AM 15.8 °F 6.1 °F 3.2 °F 58% 29.30 in 10.0 mi North 6.9 mph - N/A   Mostly Cloudy
10:56 AM 17.6 °F 9.3 °F 1.4 °F 49% 29.31 in 10.0 mi North 5.8 mph - N/A   Clear
11:56 AM 17.6 °F 7.3 °F 1.4 °F 49% 29.33 in 10.0 mi North 8.1 mph 19.6 mph N/A   Clear
12:56 PM 17.6 °F 6.4 °F -0.4 °F 45% 29.33 in 10.0 mi North 9.2 mph 20.7 mph N/A   Clear
1:56 PM 17.6 °F 8.2 °F -0.4 °F 45% 29.33 in 10.0 mi North 6.9 mph 17.3 mph N/A   Clear
2:56 PM 17.6 °F 8.2 °F -0.4 °F 45% 29.34 in 10.0 mi North 6.9 mph - N/A   Clear
3:56 PM 15.8 °F 6.1 °F -2.2 °F 45% 29.34 in 10.0 mi North 6.9 mph - N/A   Clear
4:56 PM 15.8 °F 5.1 °F -2.2 °F 45% 29.36 in 10.0 mi NNE 8.1 mph 20.7 mph N/A   Clear
5:56 PM 15.8 °F 4.2 °F -2.2 °F 45% 29.36 in 10.0 mi North 9.2 mph 21.9 mph N/A   Clear
6:56 PM 14.0 °F -0.2 °F -4.0 °F 45% 29.38 in 10.0 mi North 12.7 mph 24.2 mph N/A   Clear
7:56 PM 14.0 °F 0.5 °F -2.2 °F 49% 29.39 in 10.0 mi North 11.5 mph 20.7 mph N/A   Clear
8:56 PM 15.8 °F 6.1 °F -4.0 °F 41% 29.40 in 10.0 mi North 6.9 mph 20.7 mph N/A   Clear
9:56 PM 15.8 °F 7.2 °F -4.0 °F 41% 29.42 in 10.0 mi North 5.8 mph 23.0 mph N/A   Clear
10:56 PM 15.8 °F 4.2 °F -4.0 °F 41% 29.42 in 10.0 mi North 9.2 mph 18.4 mph N/A   Clear
11:56 PM 15.8 °F 2.1 °F -4.0 °F 41% 29.43 in 10.0 mi NNE 12.7 mph 23.0 mph N/A   Clear